Regional Weather Roundup
Issued by NWS

Home | Current Version | Previous Version | Graphics & Text | Print | Product List | Glossary On
Versions: 1 2 3 4 5 6 7 8 9 10 11 12 13 14 15 16 17 18 19 20 21 22 23 24 25 26 27 28 29 30 31 32 33 34 35 36 37 38 39 40 41 42 43 44 45 46 47 48 49 50
000
ASUS43 KDTX 251201
RWRMI
MICHIGAN HOURLY REGIONAL WEATHER ROUNDUP
NATIONAL WEATHER SERVICE DETROIT/PONTIAC MI
800 AM EDT MON JUL 25 2016

NOTE: "FAIR" INDICATES FEW OR NO CLOUDS BELOW 12,000 FEET WITH NO
SIGNIFICANT WEATHER AND/OR OBSTRUCTION TO VISIBILITY.

MIZ047>049-052>055-059>063-066>070-074>076-081>083-251300-
SOUTHEAST LOWER MICHIGAN

CITY           SKY/WX    TMP DP  RH WIND       PRES   REMARKS
ADRIAN         CLOUDY    73  69  87 W8        29.94S
6HR MIN TEMP:  71; 6HR MAX TEMP:  79; 6HR PCP:  0.13;

ALMA           PTSUNNY   74  73  94 W7        29.91S
ANN ARBOR      MOSUNNY   74  71  91 SW9       29.93R
BAD AXE        CLOUDY    75  72  92 W7        29.87R
CARO           PTSUNNY   75  72  88 W8        29.87S
DETROIT CITY   CLOUDY    76  72  87 W9        29.88R
6HR MIN TEMP:  75; 6HR MAX TEMP:  82; 6HR PCP:  0.05;

DETROIT        CLOUDY    76  71  85 W8        29.90R
6HR MIN TEMP:  75; 6HR MAX TEMP:  81; 6HR PCP:  0.03;

FLINT          CLOUDY    80  69  69 W9        29.90R
6HR MIN TEMP:  80; 6HR MAX TEMP:  83;

GROSSE ILE     CLOUDY    75  71  87 W7        29.90R
6HR MIN TEMP:  74; 6HR MAX TEMP:  82; 6HR PCP:  0.28;

HOWELL         CLOUDY    75  69  79 W7        29.92S
6HR MIN TEMP:  75; 6HR MAX TEMP:  81;


CITY           SKY/WX    TMP DP  RH WIND       PRES   REMARKS
JACKSON        CLOUDY    73  70  90 W9        29.96R
6HR MIN TEMP:  73; 6HR MAX TEMP:  81;

LAMBERTVILLE   LGT RAIN  75  70  85 W5        29.94R
6HR MIN TEMP:  74; 6HR MAX TEMP:  82;

LANSING        PTSUNNY   75  68  78 W9        29.92S
6HR MIN TEMP:  74; 6HR MAX TEMP:  82;

LAPEER         FAIR      77  69  78 W8        29.89R
6HR MIN TEMP:  77; 6HR MAX TEMP:  80;

MASON          CLOUDY    75  67  77 W6        29.94R
MONROE         CLOUDY    74  71  90 W6        29.91R
MT. CLEMENS    PTSUNNY   79  72  78 W12       29.85R
PONTIAC        CLOUDY    76  69  79 W12       29.90S
6HR MIN TEMP:  76; 6HR MAX TEMP:  80; 6HR PCP: TRACE;

PORT HOPE        N/A     76  71  85 W8        29.83R
6HR MIN TEMP:  75; 6HR MAX TEMP:  79;

PORT HURON     MOSUNNY   79  75  89 W6        29.86R
TRI CITIES     CLOUDY    75  72  90 SW9       29.89R
6HR MIN TEMP:  73; 6HR MAX TEMP:  79;

MIDLAND        NOT AVBL
TROY           PTSUNNY   78  69  74 W9        29.90S
SAGINAW HB     CLOUDY    75  70  83 W7        29.89R
$$
MIZ043>046-050>051-056>058-064>065-071>073-077>080-251300-
SOUTHWEST LOWER MICHIGAN

CITY           SKY/WX    TMP DP  RH WIND       PRES   REMARKS
BATTLE CREEK   CLOUDY    72  69  90 W8        29.96R
6HR MIN TEMP:  70; 6HR MAX TEMP:  76; 6HR PCP:  0.01;

BENTON HARBOR  CLOUDY    76  68  76 W7        29.97R
6HR MIN TEMP:  75; 6HR MAX TEMP:  77;

BIG RAPIDS     SUNNY     70  70  99 NW5       29.93R
6HR MIN TEMP:  69; 6HR MAX TEMP:  73;

COLDWATER      CLOUDY    72  70  94 SW6       29.97S
6HR MIN TEMP:  71; 6HR MAX TEMP:  78;

FREMONT        FAIR      71  71  99 NW8       29.93R
6HR MIN TEMP:  69; 6HR MAX TEMP:  74;

HOLLAND        CLOUDY    73  68  84 W3        29.96R
6HR MIN TEMP:  73; 6HR MAX TEMP:  77;

GRAND RAPIDS   CLOUDY    75  68  78 W8        29.94R
6HR MIN TEMP:  74; 6HR MAX TEMP:  77;

IONIA          FAIR      74  68  82 W7        29.92S
6HR MIN TEMP:  74; 6HR MAX TEMP:  78;

KALAMAZOO      CLOUDY    75  66  73 W5        29.95S
6HR MIN TEMP:  73; 6HR MAX TEMP:  76; 6HR PCP:  0.02;

LUDINGTON      SUNNY     72  67  84 W5        29.93R
6HR MIN TEMP:  68; 6HR MAX TEMP:  75;

MARSHALL       CLOUDY    73  71  91 W8        29.96R
6HR MIN TEMP:  73; 6HR MAX TEMP:  80; 6HR PCP:  0.01;

MOUNT PLEASANT MOSUNNY   74  69  83 W9        29.90R
6HR MIN TEMP:  72; 6HR MAX TEMP:  79;

MUSKEGON       MOSUNNY   74  68  81 NW6       29.94R
6HR MIN TEMP:  73; 6HR MAX TEMP:  75; 6HR PCP: TRACE;

SOUTH HAVEN    CLOUDY    75  70  83 W8        29.96R
$$
MIZ016>042-251300-
NORTHERN LOWER MICHIGAN

CITY           SKY/WX    TMP DP  RH WIND       PRES   REMARKS
ALPENA         PTSUNNY   73  65  75 VRB6      29.85R
6HR MIN TEMP:  71; 6HR MAX TEMP:  76;

BEAVER ISLAND  SUNNY     70  64  83 W8        29.87R
6HR MIN TEMP:  65; 6HR MAX TEMP:  70;

BELLAIRE       SUNNY     74  66  76 SW5       29.88R
6HR MIN TEMP:  69; 6HR MAX TEMP:  74;

CADILLAC       SUNNY     69  67  92 SW5       29.93R
CHARLEVOIX     SUNNY     72  67  84 W13       29.90R
6HR MIN TEMP:  69; 6HR MAX TEMP:  72;

FRANKFORT      SUNNY     72  65  81 W7        29.91R
GAYLORD        SUNNY     71  65  81 W8        29.90R
6HR MIN TEMP:  67; 6HR MAX TEMP:  75; 6HR PCP: TRACE;

GRAYLING       SUNNY     71  68  92 W5        29.91R
HARBOR SPRINGS SUNNY     71  68  90 W6        29.86S
HOUGHTON LAKE  PTSUNNY   73  68  84 W8        29.92R
6HR MIN TEMP:  69; 6HR MAX TEMP:  76;

MANISTEE       SUNNY     73  66  78 NW9       29.92R
OSCODA         CLOUDY    72  69  92 W8        29.85R
6HR MIN TEMP:  70; 6HR MAX TEMP:  74;

PELLSTON       SUNNY     71  65  81 W9        29.85S
6HR MIN TEMP:  66; 6HR MAX TEMP:  71;

ROGERS CITY    PTSUNNY   71  64  78 W7        29.85R
TRAVERSE CITY  MOSUNNY   74  67  78 W10       29.88R
6HR MIN TEMP:  72; 6HR MAX TEMP:  77;

$$
MIZ007>008-015-251300-
EASTERN UPPER MICHIGAN

CITY           SKY/WX    TMP DP  RH WIND       PRES   REMARKS
KINROSS        SUNNY     65  63  93 W5        29.83S
6HR MIN TEMP:  63; 6HR MAX TEMP:  69;

MACKINAC ISLAN MOSUNNY   69  69 100 W8        29.84S
6HR MIN TEMP:  68; 6HR MAX TEMP:  69;

NEWBERRY       SUNNY     66  63  89 W9        29.84R
6HR MIN TEMP:  63; 6HR MAX TEMP:  66;

S. S. MARIE    MOSUNNY   68  63  84 W3        29.81F
6HR MIN TEMP:  64; 6HR MAX TEMP:  69;

MUNISING         N/A     71  60  68 NW8       29.85R
6HR MIN TEMP:  69; 6HR MAX TEMP:  72;

$$
MIZ004>006-011>014-085-251300-
CENTRAL UPPER MICHIGAN

CITY           SKY/WX    TMP DP  RH WIND       PRES   REMARKS
MANISTIQUE     SUNNY     68  63  84 W9        29.86R
6HR MIN TEMP:  65; 6HR MAX TEMP:  68;

ESCANABA       SUNNY     66  61  82 W10       29.87S
6HR MIN TEMP:  64; 6HR MAX TEMP:  66;

MENOMINEE      SUNNY    N/A N/A N/A VRB5      29.93
SAWYER-GWINN   SUNNY     64  59  82 W8        29.89R
$$
MIZ001>003-009>011-084-251300-
WESTERN UPPER MICHIGAN

CITY           SKY/WX    TMP DP  RH WIND       PRES   REMARKS
IRON MOUNTAIN  SUNNY     67  59  75 W9        29.91R
6HR MIN TEMP:  65; 6HR MAX TEMP:  68;

HOUGHTON       CLOUDY    66  59  78 W15       29.89R
6HR MIN TEMP:  65; 6HR MAX TEMP:  68;

COPPER HARBOR    N/A     68  59  73 N18G29    29.83R
6HR MIN TEMP:  67; 6HR MAX TEMP:  72;

IRONWOOD       SUNNY     63  63 100 W8        29.96R
6HR MIN TEMP:  59; 6HR MAX TEMP:  66;

$$

ABBREVIATIONS USED IN REMARKS
   TC - TEMPERATURE IN CELSIUS
  WCI - WIND CHILL INDEX
   HX - HEAT INDEX
  VSB - VISIBILITY





USA.gov is the U.S. government's official web portal to all federal, state and local government web resources and services.